User: anonymous   Login
Location: Unspecified
(0.0000°N, 0.0000°E)
Time: 14:00:41
(UTC+00:00)
Language:

NOAA 6 - Orbit

View from above orbital plane
View from above orbital plane
View from above satellite
View from above satellite

Ground track
Ground track

The orbit data is extracted from the following two-line orbital elements,

1 11416U 79057A   18050.91227945 +.00000035 +00000-0 +28526-4 0  9999
2 11416 098.6026 041.9269 0009411 233.1757 126.8565 14.33465058015356
Epoch (UTC): 19 February 2018 21:53:40
Eccentricity: 0.0009411
inclination: 98.6026°
perigee height: 773 km
apogee height: 787 km
right ascension of ascending node: 41.9269°
argument of perigee: 233.1757°
revolutions per day: 14.33465058
mean anomaly at epoch: 126.8565°
orbit number at epoch: 1535

The dashed part of the orbit path shows where the satellite is in the earth's shadow,  

DLR